Tracking 17938 objects as of 24-February-2017
HD Live streaming from Space Station
objects crossing your sky now

PERSEUS M2

Track PERSEUS M2 now!
10-day predictions
PERSEUS M2 is classified as:


NORAD ID: 40037
Int'l Code: 2014-033AD
Perigee: 607.5 km
Apogee: 626.5 km
Inclination: 97.9 °
Period: 96.9 minutes
Semi major axis: 6988 km
RCS: Unknown
Launch date: June 19, 2014
Source: Commonwealth of Independent States (former USSR) (CIS)
Launch site: Orenburg, Russia (OREN)
Uplink (MHz):
Downlink (MHz): 400.190/400.221
Beacon (MHz):
Mode: 9600bps GFSK
Call sign:
Status:

Your satellite tracking list
Your tracking list is empty





NASA's NSSDC Master Catalog

Two Line Element Set (TLE):
1 40037U 14033AD  17054.54639265  .00000193  00000-0  28340-4 0  9996
2 40037  97.9195 323.8495 0013605 322.5956  37.4311 14.86175965145435
Source of the keplerian elements: AFSPC